LY3FF-10 Weather Reports


Display with metric or nautical units.
time (UTC)temp
F
wind
direction
speed
MPH
gust
MPH
rain 1hr
in
rain 24hr
in
rain mn
in
humidity
%
barometer
mb
20260507054223 55 0.0 0.0 0.00 0.00 0.00 76 986.7
20260507050137 52 0.0 0.0 0.00 0.00 0.00 76 987.0
20260507044737 54 0.0 0.0 0.00 0.00 0.00 76 987.0
20260507043322 51 0.0 0.0 0.00 0.00 0.00 77 986.9
20260507035322 49 0.0 0.0 0.00 0.00 0.00 78 986.9
20260507033851 51 0.0 0.0 0.00 0.00 0.00 77 986.7
20260507032442 48 0.0 0.0 0.00 0.00 0.00 78 986.9
20260507031112 50 0.0 0.0 0.00 0.00 0.00 78 986.9
20260507023314 47 0.0 0.0 0.00 0.00 0.00 77 986.6
20260507021832 47 0.0 0.0 0.00 0.00 0.00 77 986.6
20260507013723 50 0.0 0.0 0.00 0.00 0.00 76 986.6
20260507012318 47 0.0 0.0 0.00 0.00 0.00 76 986.6
20260507005717 48 0.0 0.0 0.00 0.00 0.00 75 986.6
20260507004503 48 0.0 0.0 0.00 0.00 0.00 75 986.5
20260507001919 51 0.0 0.0 0.00 0.00 0.00 74 986.6
20260507000457 48 0.0 0.0 0.00 0.00 0.00 73 986.7
20260506235032 49 0.0 0.0 0.00 0.00 0.00 73 986.6
20260506233716 49 0.0 0.0 0.00 0.00 0.00 72 986.7
20260506232259 49 0.0 0.0 0.00 0.00 0.00 72 986.7
20260506230952 49 0.0 0.0 0.00 0.00 0.00 72 986.7
20260506221735 50 0.0 0.0 0.00 0.00 0.00 71 986.5
20260506220352 53 0.0 0.0 0.00 0.00 0.00 70 986.4
20260506215042 51 0.0 0.0 0.00 0.00 0.00 70 986.5
20260506213642 54 0.0 0.0 0.00 0.00 0.00 69 986.4
20260506212157 52 0.0 0.0 0.00 0.00 0.00 69 986.2
20260506204455 53 0.0 0.0 0.00 0.00 0.00 68 985.9
20260506203127 53 0.0 0.0 0.00 0.00 0.00 68 986.0
20260506201650 54 0.0 0.0 0.00 0.00 0.00 67 986.2
20260506200221 57 0.0 0.0 0.00 0.00 0.00 66 986.2
20260506193735 56 0.0 0.0 0.00 0.00 0.00 66 986.4
20260506190820 56 0.0 0.0 0.00 0.00 0.00 65 986.0
20260506185607 59 0.0 0.0 0.00 0.00 0.00 65 985.6
20260506181648 61 0.0 0.0 0.00 0.00 0.00 63 985.0
20260506180432 57 0.0 0.0 0.00 0.00 0.00 63 985.0
20260506174933 58 0.0 0.0 0.00 0.00 0.00 62 985.1
20260506172523 58 0.0 0.0 0.00 0.00 0.00 62 985.1
20260506171251 62 0.0 0.0 0.00 0.00 0.00 61 985.2
20260506165813 58 0.0 0.0 0.00 0.00 0.00 61 985.0
20260506164337 59 0.0 0.0 0.00 0.00 0.00 61 985.1
20260506162953 64 0.0 0.0 0.00 0.00 0.00 60 985.3
20260506161537 60 0.0 0.0 0.00 0.00 0.00 60 985.4
20260506154942 64 0.0 0.0 0.00 0.00 0.00 61 985.5
20260506152237 61 0.0 0.0 0.00 0.00 0.00 60 985.9
20260506150817 66 0.0 0.0 0.00 0.00 0.00 59 985.9
20260506145404 62 0.0 0.0 0.00 0.00 0.00 57 986.5
20260506144107 62 0.0 0.0 0.00 0.00 0.00 54 986.6
20260506142837 64 0.0 0.0 0.00 0.00 0.00 51 987.2
20260506141442 71 0.0 0.0 0.00 0.00 0.00 47 986.4
20260506134910 68 0.0 0.0 0.00 0.00 0.00 44 986.2
20260506130949 70 0.0 0.0 0.00 0.00 0.00 43 986.6
20260506125633 72 0.0 0.0 0.00 0.00 0.00 44 986.8
20260506115118 84 0.0 0.0 0.00 0.00 0.00 45 987.5
20260506113627 68 0.0 0.0 0.00 0.00 0.00 46 987.6
20260506112207 68 0.0 0.0 0.00 0.00 0.00 47 987.9
20260506104028 65 0.0 0.0 0.00 0.00 0.00 49 988.2
20260506101357 64 0.0 0.0 0.00 0.00 0.00 50 988.6
20260506100058 86 0.0 0.0 0.00 0.00 0.00 51 988.7
20260506093222 61 0.0 0.0 0.00 0.00 0.00 52 988.5
20260506091755 61 0.0 0.0 0.00 0.00 0.00 53 988.5
20260506090418 70 0.0 0.0 0.00 0.00 0.00 53 988.6
20260506082105 66 0.0 0.0 0.00 0.00 0.00 56 988.8
20260506072632 56 0.0 0.0 0.00 0.00 0.00 59 989.3
20260506071339 55 0.0 0.0 0.00 0.00 0.00 59 989.3
20260506062146 53 0.0 0.0 0.00 0.00 0.00 61 989.5